[[{"header":{"parameterUnit":"m.s-1","parameterCategory":1,"la1":30.2991,"la2":30.254,"lo1":-89.0895,"lo2":-89.0444,"dy":0.0017,"dx":0.0017,"nx":28,"ny":28,"refTime":"2026-02-27T03:00:00:Z","depth":0,"parameterNumber":2,"parameterNumberName":"U-component_of_WINDS"},"data":[0,0,0,0,0,0,0,0,0,0,0,0,0,0,0,0,0,0,0,0,0,0,0,0,0,0,0,0,0,0,0,0,0,0,0,0,0,0,0,0,0,0,0,0,0,0,0,0,0,0,0,0,0,0,0,0,0,0,0.9543,0.9543,0,0.9551,0.9551,0.9551,0.9552,0.9552,0.9552,0.9551,0.956,0.956,0.956,0,0,0,0,0,0,0,0,0,0,0,0,0,0.953,0.953,0.9543,0.9543,0.9544,0.9551,0.9551,0.9551,0.9552,0.9552,0.9552,0.9551,0.956,0.956,0.956,0,0,0,0,0,0,0,0,0,0,0,0,0,0.9537,0.953,0.9543,0.9545,0.9545,0.9551,0.9551,0.9551,0.9552,0.9552,0.9551,0.9551,0.9559,0.956,0.956,0.9566,0,0,0.9562,0.9562,0,0,0,0,0,0,0,0,0.9536,0.9537,0.9544,0.9545,0.9545,0.955,0.9549,0.9556,0.9552,0.9549,0.9551,0.9551,0.9557,0.9557,0.9559,0.9566,0.9566,0.9562,0.9562,0.9562,0.9562,0,0,0,0,0,0,0,0.9536,0.9537,0.9546,0.9545,0.9545,0.9545,0.9546,0.9551,0.9554,0.9549,0.9549,0.955,0.9557,0.9559,0.9559,0.9567,0.9562,0.9562,0.9562,0.9563,0.9579,0.9579,0,0,0,0,0,0,0.9535,0.9536,0.9546,0.9547,0.954,0.9546,0.9546,0.9549,0.9554,0.9554,0.955,0.955,0.9558,0.9559,0.956,0.9567,0.9562,0.9563,0.9563,0.9579,0.9579,0.9579,0,0,0,0,0,0,0.9535,0.9536,0.9546,0.9542,0.9543,0.9546,0.9548,0.9549,0.9551,0.9554,0.9555,0.9552,0.9558,0.9559,0.9564,0.9567,0.9563,0.9563,0.9579,0.9579,0.9579,0.958,0,0,0,0,0,0,0.9534,0.9536,0.9538,0.9542,0.9543,0.955,0.9549,0.9549,0.9551,0.9551,0.9556,0.9556,0.9558,0.9564,0.9565,0.9567,0.9564,0.9578,0.9579,0.9579,0.958,0.9581,0.9581,0,0,0,0,0,0.9534,0.9538,0.9538,0.9539,0.9545,0.955,0.9551,0.9553,0.9552,0.9554,0.9556,0.9556,0.9566,0.9564,0.9565,0.9568,0.9578,0.9579,0.9579,0.958,0.9581,0.9581,0,0,0,0,0,0,0.9534,0.9538,0.9538,0.9543,0.9547,0.955,0.9553,0.9553,0.9557,0.9557,0.9559,0.956,0.9565,0.9567,0.9565,0.9574,0.9572,0.9573,0.9573,0.9573,0.9574,0.9573,0.9564,0,0,0,0,0,0.9535,0.9538,0.9542,0.9546,0.9547,0.955,0.9552,0.9553,0.9557,0.9558,0.9561,0.9564,0.9568,0.9571,0.9574,0.958,0.9582,0.9583,0.9584,0.9584,0.9585,0.9588,0.9589,0.958,0.958,0.958,0,0,0.9536,0.9539,0.9541,0.9546,0.9548,0.9552,0.9551,0.9555,0.9558,0.9559,0.9564,0.9566,0.957,0.9576,0.9578,0.9578,0.9587,0.9584,0.9585,0.9585,0.9589,0.959,0.959,0.9581,0.9581,0.9581,0,0,0.954,0.9543,0.9547,0.9549,0.9553,0.9555,0.9556,0.956,0.9561,0.9567,0.9567,0.9571,0.9578,0.9581,0.9583,0.9589,0.9589,0.959,0.9593,0.9597,0.9597,0.9598,0.9601,0.9601,0.9591,0.9591,0.9591,0,0.9542,0.9547,0.9549,0.9553,0.9555,0.9556,0.956,0.9563,0.9568,0.957,0.9569,0.9577,0.958,0.9587,0.9588,0.959,0.9592,0.959,0.9597,0.9598,0.9598,0.9601,0.9602,0.9591,0.9591,0.9591,0.9591,0,0.9549,0.9553,0.9556,0.9561,0.9563,0.9568,0.957,0.9573,0.9573,0.9575,0.9581,0.9584,0.9589,0.9591,0.9592,0.9598,0.9597,0.9597,0.9595,0.9599,0.9602,0.9603,0.9591,0.9591,0.9591,0.9591,0,0,0.9554,0.956,0.9561,0.9563,0.9567,0.9571,0.9575,0.958,0.9582,0.9586,0.959,0.9596,0.9595,0.9598,0.9599,0.9602,0.9608,0.9601,0.9601,0.9603,0.9615,0.9616,0.9617,0.9608,0.9608,0.9608,0.9615,0,0.9559,0.9567,0.9569,0.9575,0.9579,0.958,0.9584,0.9587,0.9589,0.9593,0.9596,0.96,0.9599,0.96,0.9604,0.9606,0.961,0.9606,0.9612,0.9612,0.9611,0.9618,0.9619,0.9626,0.9616,0.9616,0.9616,0,0.9566,0.957,0.9577,0.9582,0.9584,0.9587,0.9592,0.9595,0.9599,0.9601,0.9604,0.9605,0.961,0.9607,0.9615,0.9612,0.9614,0.9616,0.9616,0.9617,0.9615,0.962,0.9628,0.9629,0.9618,0.9618,0.9618,0,0.957,0.9577,0.9582,0.9584,0.9589,0.9592,0.9594,0.9598,0.9601,0.9605,0.9607,0.9611,0.9614,0.9618,0.962,0.9618,0.9627,0.9625,0.9629,0.9629,0.9631,0.9631,0.964,0.9632,0.9632,0.9632,0.9632,0,0.9576,0.958,0.9584,0.9587,0.9592,0.9594,0.96,0.9602,0.9605,0.961,0.961,0.9614,0.9617,0.9621,0.9623,0.9629,0.963,0.9631,0.9632,0.9632,0.9632,0.9634,0.9634,0.9632,0.9632,0.9632,0.9632,0,0.9581,0.9583,0.9589,0.9593,0.9595,0.9598,0.9602,0.9606,0.9608,0.9613,0.9615,0.9618,0.9623,0.9626,0.9632,0.9633,0.964,0.964,0.9639,0.9639,0.9643,0.9643,0.9654,0.9656,0.9646,0.9647,0.9647,0,0.9584,0.9588,0.9593,0.9596,0.9598,0.9603,0.9606,0.9608,0.9611,0.9616,0.9619,0.9624,0.9629,0.9637,0.964,0.9645,0.9646,0.9649,0.9646,0.9646,0.9646,0.9646,0.9647,0.965,0.965,0.965,0.965,0,0.9591,0.9592,0.9597,0.9601,0.9605,0.9609,0.9613,0.9615,0.9618,0.9621,0.9627,0.963,0.9637,0.9642,0.9648,0.965,0.9651,0.9651,0.9652,0.9652,0.9651,0.9652,0.9641,0.9651,0.9651,0.965,0.965,0.965,0.9596,0.96,0.9604,0.9609,0.9612,0.9615,0.9619,0.9622,0.9626,0.9632,0.9633,0.9639,0.9643,0.965,0.9653,0.9658,0.9657,0.9659,0.966,0.966,0.9661,0.965,0.9659,0.9659,0.9659,0.9659,0.9659,0,0.9603,0.9606,0.9611,0.9616,0.962,0.962,0.9625,0.9628,0.9633,0.9637,0.9641,0.9648,0.9653,0.9657,0.9662,0.9666,0.9666,0.9667,0.9667,0.9668,0.9661,0.9659,0.9667,0.9667,0.9667,0.9667,0.9667,0.9667,0.9608,0.9614,0.9616,0.9623,0.9626,0.9632,0.9635,0.9638,0.9641,0.9649,0.9653,0.9655,0.966,0.9665,0.967,0.9671,0.9674,0.9675,0.9676,0.9669,0.9668,0.9668,0.9666,0.9675,0.9675,0.9683,0.9683,0.9683]},{"header":{"parameterUnit":"m.s-1","parameterCategory":1,"la1":30.2991,"la2":30.254,"lo1":-89.0895,"lo2":-89.0444,"dy":0.0017,"dx":0.0017,"nx":28,"ny":28,"refTime":"2026-02-27T03:00:00:Z","depth":0,"parameterNumber":3,"parameterNumberName":"V-component_of_WINDS"},"data":[0,0,0,0,0,0,0,0,0,0,0,0,0,0,0,0,0,0,0,0,0,0,0,0,0,0,0,0,0,0,0,0,0,0,0,0,0,0,0,0,0,0,0,0,0,0,0,0,0,0,0,0,0,0,0,0,0,0,2.8982,2.8981,0,2.8897,2.8896,2.8895,2.8836,2.8835,2.8835,2.8834,2.8743,2.8741,2.8739,0,0,0,0,0,0,0,0,0,0,0,0,0,2.9088,2.9087,2.8982,2.8981,2.898,2.8897,2.8896,2.8895,2.8836,2.8835,2.8835,2.8834,2.8743,2.8741,2.8739,0,0,0,0,0,0,0,0,0,0,0,0,0,2.9027,2.9086,2.8982,2.894,2.8936,2.8897,2.8896,2.8894,2.8836,2.8835,2.8835,2.8834,2.8744,2.8741,2.8738,2.8733,0,0,2.8729,2.8728,0,0,0,0,0,0,0,0,2.903,2.9023,2.8947,2.8943,2.8938,2.8876,2.89,2.884,2.8836,2.8874,2.8834,2.8834,2.8787,2.8781,2.8766,2.8729,2.8725,2.8729,2.8727,2.8726,2.8725,0,0,0,0,0,0,0,2.9035,2.9026,2.8948,2.8946,2.8941,2.8925,2.8915,2.8888,2.8835,2.887,2.8866,2.8857,2.8785,2.8769,2.8764,2.8723,2.8729,2.8726,2.8724,2.8723,2.8678,2.8679,0,0,0,0,0,0,2.9046,2.903,2.8951,2.8945,2.8984,2.8923,2.8913,2.8897,2.8835,2.8825,2.8858,2.8854,2.8775,2.8767,2.876,2.8751,2.8726,2.8723,2.8721,2.8677,2.8678,2.8679,0,0,0,0,0,0,2.9048,2.9039,2.8954,2.8986,2.8974,2.8922,2.8905,2.8895,2.888,2.8826,2.8816,2.8852,2.8774,2.8764,2.8741,2.8747,2.8721,2.8719,2.8677,2.8678,2.8678,2.8732,0,0,0,0,0,0,2.9052,2.9041,2.9039,2.8987,2.8973,2.8938,2.8905,2.8894,2.8876,2.8871,2.8818,2.8808,2.8773,2.8746,2.8738,2.8742,2.8716,2.8676,2.8677,2.8678,2.8729,2.8735,2.8739,0,0,0,0,0,2.9056,2.9056,2.9039,2.903,2.897,2.8938,2.893,2.889,2.8876,2.8874,2.8839,2.881,2.8747,2.8744,2.8734,2.8738,2.8675,2.8677,2.8678,2.8727,2.8734,2.8739,0,0,0,0,0,0,2.9108,2.9049,2.9029,2.9013,2.8981,2.8928,2.8924,2.8898,2.8868,2.8865,2.8815,2.8804,2.8786,2.8759,2.8756,2.873,2.8708,2.8707,2.8748,2.8754,2.8759,2.8766,2.8714,0,0,0,0,0,2.9118,2.9099,2.9047,2.9037,2.9023,2.8976,2.8961,2.8933,2.8898,2.8883,2.8847,2.8812,2.8785,2.8768,2.8739,2.8725,2.8713,2.8723,2.8728,2.8732,2.8732,2.8724,2.8728,2.8683,2.8683,2.8683,0,0,2.9138,2.9103,2.9093,2.9047,2.9019,2.8999,2.8965,2.8945,2.8929,2.888,2.8856,2.8828,2.8786,2.8768,2.8757,2.8745,2.8742,2.8734,2.8737,2.8735,2.8726,2.873,2.8734,2.8684,2.8684,2.8684,0,0,2.9165,2.9136,2.9126,2.9099,2.9058,2.9028,2.9025,2.8976,2.8956,2.8932,2.8895,2.8874,2.8828,2.88,2.878,2.8797,2.8769,2.8789,2.8814,2.8806,2.881,2.8813,2.882,2.8823,2.8789,2.8789,2.8789,0,2.9194,2.9164,2.9123,2.9106,2.9087,2.9043,2.9032,2.9007,2.8959,2.8946,2.8933,2.8875,2.8843,2.8818,2.8823,2.8807,2.8803,2.8795,2.8813,2.8815,2.8817,2.8824,2.8826,2.8792,2.8792,2.8791,2.8791,0,2.9203,2.9182,2.9179,2.9136,2.9116,2.9101,2.9058,2.9042,2.9017,2.8987,2.8963,2.8924,2.8887,2.8879,2.8852,2.885,2.8844,2.8823,2.8799,2.8825,2.883,2.8832,2.8796,2.8795,2.8794,2.8793,0,0,2.926,2.9196,2.9195,2.9175,2.9127,2.911,2.9093,2.906,2.9048,2.9016,2.9001,2.8963,2.8943,2.892,2.889,2.8884,2.8901,2.8863,2.8861,2.8872,2.8897,2.8915,2.8918,2.8882,2.8883,2.8883,2.8901,0,2.928,2.9251,2.9214,2.9196,2.9177,2.9135,2.9121,2.909,2.9062,2.904,2.9008,2.8983,2.8958,2.8944,2.8935,2.8901,2.8906,2.8899,2.8868,2.8867,2.8881,2.892,2.8938,2.8958,2.8903,2.8903,2.8903,0,2.9299,2.9272,2.9254,2.9209,2.9199,2.9187,2.9154,2.9134,2.9097,2.9077,2.9052,2.9021,2.9001,2.898,2.8951,2.8948,2.8932,2.8913,2.8913,2.8909,2.8888,2.8919,2.8963,2.8966,2.8906,2.8905,2.8905,0,2.9345,2.9303,2.9287,2.9271,2.9217,2.921,2.9187,2.915,2.9132,2.9102,2.9091,2.9058,2.904,2.9015,2.8976,2.8964,2.8952,2.8927,2.8934,2.8936,2.8934,2.8935,2.8978,2.8923,2.8923,2.8923,2.8923,0,2.9372,2.9362,2.9307,2.9297,2.9285,2.9242,2.9231,2.9204,2.9171,2.9155,2.9115,2.91,2.9048,2.9027,2.8995,2.8977,2.8969,2.8952,2.8944,2.8956,2.8958,2.8946,2.8944,2.8924,2.8923,2.8923,2.8923,0,2.9421,2.9383,2.9363,2.9315,2.9302,2.9296,2.9254,2.9242,2.9212,2.9192,2.9184,2.9136,2.9109,2.9067,2.9026,2.9005,2.8993,2.8979,2.9006,2.9002,2.9012,2.9012,2.9049,2.9052,2.8994,2.8995,2.8995,0,2.9441,2.9433,2.9385,2.9372,2.9351,2.9331,2.9313,2.927,2.9253,2.9212,2.9205,2.9175,2.9149,2.9108,2.9069,2.9038,2.9023,2.9038,2.9018,2.9031,2.9025,2.9026,2.9026,2.9043,2.9044,2.9045,2.9045,0,2.9482,2.9464,2.9441,2.9412,2.9393,2.9368,2.934,2.9331,2.9282,2.9265,2.9238,2.9218,2.9178,2.9149,2.9113,2.9088,2.9059,2.9052,2.9052,2.9065,2.9082,2.9075,2.902,2.9051,2.9051,2.905,2.905,2.905,2.9517,2.9509,2.9475,2.9451,2.9426,2.9402,2.9389,2.9358,2.9335,2.9301,2.9276,2.9251,2.9214,2.9163,2.914,2.9118,2.9106,2.9106,2.9106,2.9107,2.9112,2.9085,2.9111,2.9111,2.9111,2.9111,2.911,0,2.9557,2.9533,2.9512,2.9476,2.9457,2.9433,2.9401,2.9387,2.9366,2.9335,2.9311,2.928,2.9252,2.9211,2.918,2.9171,2.9156,2.9164,2.9165,2.9159,2.9125,2.9128,2.9176,2.9176,2.9176,2.9176,2.9176,2.9176,2.9576,2.9561,2.9539,2.9511,2.9487,2.9463,2.9448,2.9425,2.94,2.9368,2.9346,2.932,2.9285,2.925,2.9223,2.9212,2.9203,2.9215,2.9199,2.9168,2.9162,2.9156,2.9159,2.9213,2.9213,2.9236,2.9236,2.9236]}]]